Meridian, MS

7:59 PM CST on November 16, 2019 (GMT -0600)
Key

Weather History for KMEI - October, 2019

Change the Weather History Date:

Friday, October 18, 2019

  Actual Average Record
Temperature  
Mean Temperature 57 °F 63 °F  
Max Temperature 66 °F 77 °F 91 °F (2016)
Min Temperature 47 °F 50 °F 33 °F (1948)
Degree Days  
Heating Degree Days 8 4  
Month to date heating degree days 26 43  
Since 1 July heating degree days 26 50  
Cooling Degree Days 0 2  
Month to date cooling degree days 185 68  
Year to date cooling degree days 2817 1991  
Growing Degree Days 7 (Base 50)    
Moisture  
Dew Point 47 °F    
Average Humidity 73    
Maximum Humidity 93    
Minimum Humidity 48    
Precipitation  
Precipitation 0.00 in 0.12 in 1.98 in (2012)
Month to date precipitation 4.62 2.10  
Year to date precipitation 47.80 44.49  
Sea Level Pressure  
Sea Level Pressure 29.92 in    
Wind  
Wind Speed 4 mph ()    
Max Wind Speed 13 mph    
Max Gust Speed 16 mph    
Visibility 10.0 miles    
Events      
T = Trace of Precipitation, MM = Missing Value Source: Averaged Metar Reports

Daily Weather History Graph

Daily Weather History Graph

Search for Another Location

Airport or City:

Astronomy

Oct. 18, 2019 Rise Set
Actual Time 7:00 AM CDT 6:19 PM CDT
Civil Twilight 6:35 AM CDT 6:43 PM CDT
Nautical Twilight 6:07 AM CDT 7:12 PM CDT
Astronomical Twilight 5:38 AM CDT 7:40 PM CDT
Moon 9:48 PM CDT (10/18) 11:21 AM CDT (10/18)
Length of Visible Light 12h 07m
Length of Day
11h 18m
Waning Gibbous, 78% of the Moon is Illuminated
Oct 18
Waning Gibbous
Oct 21
Last Quarter
Oct 27
New
Nov 4
First Quarter
Nov 12
Full

Hourly Weather History & Observations

Time (CDT) Temp. Dew Point Humidity Pressure Visibility Wind Dir Wind Speed Gust Speed Precip Events Conditions
12:58 AM 50.0 °F 46.9 °F 89% 29.98 in 10.0 mi Calm Calm - N/A   Clear
1:58 AM 50.0 °F 46.9 °F 89% 29.97 in 10.0 mi Calm Calm - N/A   Clear
2:58 AM 48.9 °F 46.0 °F 90% 29.95 in 10.0 mi North 3.5 mph - N/A   Clear
3:58 AM 48.0 °F 45.0 °F 89% 29.94 in 10.0 mi NW 3.5 mph - N/A   Clear
4:58 AM 48.0 °F 44.1 °F 86% 29.95 in 10.0 mi NW 4.6 mph - N/A   Clear
5:58 AM 48.0 °F 45.0 °F 89% 29.95 in 10.0 mi NNW 4.6 mph - N/A   Clear
6:58 AM 48.0 °F 45.0 °F 89% 29.95 in 10.0 mi NW 3.5 mph - N/A   Clear
7:58 AM 51.1 °F 46.0 °F 83% 29.97 in 10.0 mi North 3.5 mph - N/A   Clear
8:58 AM 54.0 °F 46.9 °F 77% 30.00 in 10.0 mi Calm Calm - N/A   Clear
9:58 AM 55.9 °F 46.9 °F 72% 29.99 in 10.0 mi NE 4.6 mph - N/A   Clear
10:58 AM 57.9 °F 45.0 °F 62% 29.99 in 10.0 mi East 5.8 mph - N/A   Clear
11:58 AM 59.0 °F 46.0 °F 62% 29.97 in 10.0 mi ENE 6.9 mph - N/A   Clear
12:58 PM 61.0 °F 46.0 °F 58% 29.94 in 10.0 mi ENE 9.2 mph - N/A   Clear
1:58 PM 66.0 °F 46.9 °F 50% 29.92 in 10.0 mi SE 5.8 mph - N/A   Clear
2:58 PM 64.0 °F 45.0 °F 50% 29.90 in 10.0 mi East 6.9 mph - N/A   Clear
3:58 PM 64.0 °F 46.9 °F 54% 29.89 in 10.0 mi ENE 8.1 mph - N/A   Clear
4:58 PM 64.0 °F 46.9 °F 54% 29.90 in 10.0 mi NE 6.9 mph - N/A   Clear
5:58 PM 62.1 °F 48.0 °F 60% 29.88 in 10.0 mi NE 9.2 mph - N/A   Clear
6:58 PM 60.1 °F 48.0 °F 64% 29.86 in 10.0 mi NNE 8.1 mph - N/A   Clear
7:58 PM 57.0 °F 48.9 °F 74% 29.85 in 10.0 mi NE 8.1 mph - N/A   Clear
8:58 PM 55.9 °F 48.0 °F 75% 29.86 in 10.0 mi NE 6.9 mph - N/A   Clear
9:58 PM 55.9 °F 48.9 °F 77% 29.86 in 10.0 mi NNE 4.6 mph - N/A   Clear
10:58 PM 55.0 °F 50.0 °F 83% 29.84 in 10.0 mi NNE 3.5 mph - N/A   Clear
11:58 PM 55.9 °F 51.1 °F 84% 29.83 in 10.0 mi Calm Calm - N/A   Partly Cloudy